www.pogodaiklimat.ru

Погода и климат >> Архив погоды >> Беларусь >> Ганцевичи


ПОГОДА в Ганцевичах

  • Прогноз погоды в Ганцевичах
  • Монитор погоды в Ганцевичах

АРХИВ ПОГОДЫ в Ганцевичах

Время (UTC), дата Ветер
(напр.,м/с)
 
Видим.   Явления Облачность Т
(С)
Тd
(С)
f
(%)
Тe
(С)
Тes
(С)
Комфортность P
(гПа)
Po
(гПа)
Тmin
(С)
Tmax
(С)
R
(мм)
R24
(мм)
S
(см)
09 18.08 ЮЗ 1 20 км 1/0
[Ci fib]
+24.1 +11.7 46 +26 +39 жарко 1013.0 994.9
12 18.08 ЮЗ 2 20 км 3/3 1000 м
[Cu hum]
+24.7 +10.9 42 +26 +33 жарко 1013.0 995.0
15 18.08 Ю 2 20 км 3/3 1000 м
[Cu hum]
+25.9 +12.0 42 +27 +29 жарко 1013.0 995.0
18 18.08 штиль 0 10 км 1/0
[Ci fib]
+18.8 +15.8 83 +20 +20 1014.0 995.6 +26.8
21 18.08 штиль 0 10 км н/о +15.6 +14.8 95 +15 +15 1014.0 995.4
00 19.08 штиль 0 10 км н/о +13.9 +13.6 98 +13 +13 1015.0 996.3
03 19.08 штиль 0 10 км н/о +14.3 +12.8 91 +14 +14 1015.0 996.3 +13.4
06 19.08 ЮВ 1 10 км 4/0
[Ci fib]
+20.4 +16.0 76 +24 +28 комфорт 1015.0 996.7 +13.4
09 19.08 Ю 3 20 км 3/0 2000 м
[Ac trans]
+26.2 +18.1 61 +31 +38 очень
душно
1015.0 997.1
12 19.08 Ю 2 20 км 3/0 2000 м
[Ac trans]
+28.1 +18.2 55 +33 +40 очень
душно
1015.0 997.2
15 19.08 ЮВ 2 20 км ясно +30.2 +18.3 49 +35 +38 очень
душно
1016.0 998.3
18 19.08 штиль 0 10 км 3/0 2000 м
[Ac trans]
+22.9 +19.9 83 +30 +30 очень
душно
1016.0 997.9 +30.3
21 19.08 ЮВ 1 10 км н/о +21.1 +18.7 86 +25 +25 комфорт 1017.0 998.7
00 20.08 СЗ 1 10 км н/о +20.4 +16.8 80 +25 +25 комфорт 1019.0 1000.6
03 20.08 СВ 1 10 км н/о +18.4 +17.7 96 +20 +20 1020.0 1001.5 +18.0
06 20.08 СВ 2
{13}
6000 м в посл. час гроза 9/4 600 м
[Cb cap Ac trans]
+20.3 +18.4 89 +24 +24 комфорт 1021.0 1002.6 +18.0 0.0
09 20.08 В 3 15 км {ливн. осадки} 9/3 600 м
[Cb calv Ac trans Ci fib]
+24.4 +18.6 70 +29 +29 душно 1021.0 1002.9
12 20.08 С 1 15 км {ливн. осадки} 9/3 1000 м
[Cu med, cong Ac trans]
+25.1 +19.8 72 +31 +35 очень
душно
1021.2 1002.9
15 20.08 СЗ 1 15 км 6/1 1000 м
[Cu hum Ac trans]
+25.8 +19.7 69 +31 +33 очень
душно
1022.0 1003.9
18 20.08 штиль 0 6000 м дымка 4/0 2000 м
[Ac trans]
+21.2 +19.7 91 +26 +26 душно 1023.0 1004.6 +26.5 0.4
21 20.08 штиль 0 10 км н/о +19.0 +19.0 100 +21 +21 комфорт 1023.0 1004.5
00 21.08 штиль 0 9000 м н/о +17.7 NAN ? +18 +18 1022.0 0.0
03 21.08 штиль 0 8000 м н/о +18.0 NAN ? +18 +18 1021.0 0.0 +16.8
06 21.08 В 2 6000 м дымка 8/0 2000 м
[Ac trans]
+20.6 +19.1 91 +25 +25 комфорт 1020.0 1001.7 +16.8
09 21.08 ЮВ 4 20 км 8/0 2000 м
[Ac trans Ci fib]
+28.3 +16.9 50 +32 +32 душно 1019.0 1001.1
12 21.08 Ю 4
{12}
20 км 4/0 2000 м
[Ac trans]
+30.4 +14.1 37 +32 +37 жарко 1017.0 999.3
15 21.08 З 5-11
{11}
15 км 9/3 600 м
[Cb calv Ac trans]
+24.4 +19.7 75 +30 +30 очень
душно
1020.0 1001.9
18 21.08 З 5
{11}
10 км 9/9 540 м
[Sc diur, vesp]
+16.3 +13.2 82 +15 +15 1024.0 1005.3 +31.5
21 21.08 СЗ 3
{10}
10 км н/о +14.9 +12.6 86 +14 +14 1025.0 1006.1
00 22.08 З 2 10 км н/о +13.3 +11.9 91 +13 +13 1027.0 1008.0
03 22.08 СЗ 1 10 км н/о +12.3 +11.8 97 +12 +12 1028.0 1008.9 +11.9
06 22.08 СЗ 2 6000 м дымка 9/9 210 м
[St]
+13.6 +13.0 96 +13 +13 1029.0 1010.0 +11.9
09 22.08 СЗ 2
{10}
20 км 1/1 1000 м
[Cu hum]
+19.0 +12.3 65 +21 +32 комфорт 1030.0 1011.3
12 22.08 СЗ 3 20 км 8/0
[Ci fib]
+21.2 +9.4 47 +23 +23 комфорт 1029.0 1010.5
15 22.08 СЗ 1 20 км 8/0
[Ci fib]
+21.1 +8.0 43 +22 +22 комфорт 1028.0 1009.5
18 22.08 СЗ 1 15 км 8/0
[Ci fib]
+16.4 +11.1 71 +17 +17 1029.0 1010.2 +22.3
21 22.08 штиль 0 10 км н/о +11.2 +11.2 100 +10 +10 1030.0 1010.8
00 23.08 штиль 0 10 км н/о +9.0 +9.0 100 +8 +8 1030.0 1010.6
03 23.08 штиль 0 10 км н/о +7.4 NAN ? +8 +8 1031.0 0.0 +7.4
06 23.08 штиль 0 10 км 1/0 2000 м
[Ac trans]
+16.0 +12.4 79 +16 +21 1031.0 1012.1 +6.9
09 23.08 С 1 20 км 3/3 1000 м
[Cu hum]
+20.8 +10.9 53 +24 +33 комфорт 1030.0 1011.4
12 23.08 СВ 2 20 км ясно +22.6 +9.0 42 +24 +34 комфорт 1029.0 1010.5
15 23.08 СЗ 1 20 км ясно +22.6 +9.7 44 +24 +27 комфорт 1028.0 1009.6
18 23.08 штиль 0 10 км ясно +14.6 +12.1 85 +14 +14 1029.0 1010.0 +23.5
21 23.08 штиль 0 10 км н/о +10.4 +10.4 100 +10 +10 1029.0 1009.8
00 24.08 штиль 0 6000 м н/о +8.2 NAN ? +9 +9 1029.0 0.0
03 24.08 штиль 0 300 м н/о +6.1 NAN ? +7 +7 1029.0 0.0 +6.1
06 24.08 штиль 0 10 км ясно +15.8 +13.1 84 +16 +21 1029.0 1010.1 +6.0
09 24.08 штиль 0 10 км ясно +22.3 +10.1 46 +24 +39 комфорт 1028.0 1009.5
12 24.08 СЗ 1 10 км 3 балла +24.1 +10.4 42 +25 +33 комфорт 1027.0 1008.7
15 24.08 штиль 0 10 км ясно +24.5 +10.0 40 +25 +29 комфорт 1026.0 1007.7
18 24.08 штиль 0 10 км ясно +15.5 +12.8 84 +15 +15 1027.0 1008.1 +25.7
21 24.08 штиль 0 10 км н/о +11.0 +11.0 100 +10 +10 1027.0 1007.8
00 25.08 штиль 0 10 км н/о +8.8 +8.8 100 +8 +8 1028.0 1008.7
03 25.08 штиль 0 10 км н/о +8.2 NAN ? +9 +9 1028.0 0.0 +7.8
06 25.08 штиль 0 10 км ясно +18.0 +13.1 73 +18 +23 1028.0 1009.3 +7.8

 

Местоположение метеостанции Ганцевичи (Брестская область, Беларусь): широта 52.75 долгота 26.44 высота над уровнем моря 157 м.

В архиве по умолчанию представлена погода в Ганцевичах за последнюю неделю. Архивные данные за месяц целиком и за предыдущие месяцы, начиная с января 2011 года, Вы можете получить, выбрав интересующий диапазон дат из раскрывающегося списка и нажав кнопку "Ввод!".


*Определитесь, кто Вы:
робот инопланетянин человек

Внимание! Время в таблицах - всемирное. Для получения местного времени необходимо прибавить поправку, которая равна 3 ч.

Смотрите также архив погоды в соседних городах и на ближайших метеорологических станциях:

Погода в Барановичах (Брестская область, Беларусь) (53 км)
Погода в Полесской (Брестская область, Беларусь) (53 км)
Погода в Ивацевичах (Брестская область, Беларусь) (73 км)
Погода в Пинске (Брестская область, Беларусь) (75 км)
Погода в Слуцке (Минская область, Беларусь) (81 км)
Погода в Столбцах (Минская область, Беларусь) (83 км)
Погода в Новогрудке (Гродненская область, Беларусь) (102 км)
Погода в Дрогичине (Брестская область, Беларусь) (109 км)
Погода в Житковичах (Гомельская область, Беларусь) (113 км)
Погода в Пружанах (Брестская область, Беларусь) (133 км)

Пояснения к столбцам:

Ветер - указаны скорость ветра в м/с - средняя за 10 мин, порывы в срок и между сроками (в фигурных скобках) и направление, откуда дует ветер: С - северный, СВ - северо-восточный, В - восточный, ЮВ - юго-восточный, Ю - южный, ЮЗ - юго-западный, З - западный, СЗ - северо-западный.
Видимость - горизонтальная дальность видимости в метрах или километрах. При видимости от 1 до 10 км при отсутствии осадков обычно наблюдается дымка, при ухудшении видимости до 1 км и менее - туман. В сухую погоду видимость может ухудшаться дымом, пылью или мглою.
Явления - указаны атмосферные явления, наблюдавшиеся в срок или в последний час перед сроком; фигурными скобками обозначены явления, наблюдавшиеся между сроками (за 1-3 часа до срока); квадратными скобками обозначены град или гололедные отложения с указанием их диаметра в мм.
Облачность - указаны через наклонную черту общая и нижняя облачность в баллах и высота нижней границы облаков в метрах; квадратными скобками обозначены формы облаков: Ci - перистые, Cs - перисто-слоистые, Cc - перисто-кучевые, Ac - высококучевые, As - высокослоистые, Sc - слоисто-кучевые, Ns - слоисто-дождевые, Cu - кучевые, Cb - кучево-дождевые. Подробнее классификацию облаков см. в Атласе облаков (PDF).
T - Температура воздуха - температура, измеренная на высоте 2 м над землей.
Td - Температура точки росы - температура, при понижении до которой содержащийся в воздухе водяной пар достигнет насыщения.
f - Относительная влажность воздуха - влажноcть воздуха, измеренная на высоте 2 м над землей.
Te - Эффективная температура - температура, которую ощущает одетый по сезону человек в тени. Характеристика душности погоды. При расчете учитывается влияние влажности воздуха и скорости ветра на теплоощущения человека.
Tes - Эффективная температура на солнце - температура, которую ощущает человек, с поправкой на солнечный нагрев. Характеристика знойности погоды. Зависит от высоты солнца над горизонтом, облачности и скорости ветра. Ночью, в пасмурную погоду, а также при ветре 12 м/с и более поправка равна нулю.
P - Атмосферное давление - приведенное к уровню моря атмосферное давление.
Po - Атмосферное давление - измеренное на уровне метеостанции атмосферное давление.
Tmin - Минимальная температура - минимум температуры воздуха на высоте 2 м над землей.
Tmax - Максимальная температура - максимум температуры воздуха на высоте 2 м над землей.
R - Количество осадков - Количество выпавших осадков за период времени, мм. При наведении курсора мыши на число - период времени, за который выпало указанное количество осадков.
R24 - Количество осадков - Количество выпавших осадков за 24 часа, мм.
S - Снежный покров - Высота снежного покрова, см. При наведении курсора мыши на число - состояние снежного покрова и степень покрытия местности в баллах.